Regional Weather Roundup
Issued by NWS

Home | Current Version | Previous Version | Graphics & Text | Print | Product List | Glossary On
Versions: 1 2 3 4 5 6 7 8 9 10 11 12 13 14 15 16 17 18 19 20 21 22 23 24 25 26 27 28 29 30 31 32 33 34 35 36 37 38 39 40 41 42 43 44 45 46 47 48 49 50
000
ASUS45 KTFX 291619
RWRMT
MONTANA HOURLY WEATHER ROUNDUP
NATIONAL WEATHER SERVICE GREAT FALLS MT
919 AM MST THU JAN 29 2015

NOTE: "FAIR" INDICATES FEW OR NO CLOUDS BELOW 12000 FEET WITH NO
SIGNIFICANT WEATHER AND/OR OBSTRUCTIONS TO VISIBILITY.

* THESE STATIONS ARE NOT UNDER NWS QUALITY CONTROL. THEY DO NOT
   REPORT WEATHER SUCH AS PRECIPITATION OR FOG.

MTZ001>007-043-291700-
WEST OF THE DIVIDE
CITY           SKY/WX    TMP DP  RH WIND       PRES   REMARKS
KALISPELL      SUNNY     10   9  96 CALM      30.45S
MISSOULA       FOG       18  16  92 W3        30.47S VSB M1/4
BUTTE          SUNNY     18  16  92 CALM      30.41R
MULLAN PASS    PTCLDY    27  21  78 S7        30.33S WCI  19
* ANACONDA     PTCLDY    27  18  69 S8         N/A   WCI  19
* ESSEX        N/A       14  12  92 N/A        N/A
* EUREKA APT   PTCLDY    25  21  85 CALM      30.47S VSB M1/4
* HAMILTON APT PTCLDY    28  21  75 CALM      30.44S
* LIBBY APT    PTCLDY    27  25  92 CALM      30.48S
* LINCOLN      N/A       10   7  88 NE1        N/A
* LOOKOUT PASS N/A       24  24 100 S6G11      N/A   WCI  17
* POLSON       N/A       25  24  96 N/A        N/A
* RONAN APT    PTCLDY    18  16  92 N/A        N/A
* SEELEY LAKE  N/A        7   3  83 N2         N/A
* THOMP F APT  PTCLDY    28  23  81 NE3        N/A
$$

MTZ008-052>055-291700-
SOUTHWEST MONTANA
CITY           SKY/WX    TMP DP  RH WIND       PRES   REMARKS
BOZEMAN        SUNNY     25  21  85 S3        30.43S
DILLON         SUNNY     25  19  78 SW13      30.42S WCI  13
* W YELLOWSTON PTCLDY    25  24  96 N1         N/A
* THREE FORKS  SUNNY     19  19 100 N/A        N/A
* BOULDER HILL N/A       22  16  78 S10        N/A   WCI  11
* MONIDA PASS  N/A       22  22 100 N/A        N/A
* RAYNOLDS PAS N/A       18   5  57 S6         N/A   WCI  10
* WHITEHALL    N/A       19  16  88 NW5        N/A   WCI  12
* WISE RIVER   N/A       12   8  84 W4         N/A
$$

MTZ009>010-012-014-046-048-049-054-291700-
EAST SLOPES AND CENTRAL MONTANA
CITY           SKY/WX    TMP DP  RH WIND       PRES   REMARKS
CUT BANK       SUNNY     21  19  92 SW3       30.29F
GREAT FALLS    SUNNY     32  25  75 S10       30.32S WCI  24
HELENA         SUNNY     27  21  78 CALM      30.42S
MALMSTROM AFB  SUNNY     28  27  96 SW9       30.34S WCI  19
* CONRAD       SUNNY     18  14  84 CALM       N/A
* DEARBORN     N/A       39  22  51 S6G11      N/A   WCI  35
* EAST GLACIER N/A       31  22  69 W15G26     N/A   WCI  20
* MONARCH      N/A       31  17  56 S14G19     N/A   WCI  21
* PENDROY      N/A       30  18  61 SW4        N/A
* ROGERS PASS  N/A       27  20  75 SE8G17     N/A   WCI  19
* SWEET GRASS  N/A       24  24 100 S12        N/A   WCI  13
* WHITE SULPH  N/A       30  23  75 NW4        N/A
$$

MTZ011-013-016-021-035-040-045-047-050-051-291700-
NORTH CENTRAL MONTANA
CITY           SKY/WX    TMP DP  RH WIND       PRES   REMARKS
HAVRE          FOG       21  19  92 CALM      30.37S VSB M1/4
LEWISTOWN      SUNNY     27  21  78 SE7       30.35S WCI  19
* N BAR RANCH  SUNNY     28  23  81 CALM      30.37S
* CHINOOK      SUNNY     25  23  92 E6        30.37F WCI  18
* MALTA APT    SUNNY     23  19  85 N/A        N/A
* CHESTER      N/A       22  20  92 NW1        N/A
* DENTON       N/A       27  22  81 S6         N/A   WCI  20
* GEYSER       N/A       25  21  85 S5         N/A   WCI  19
* JUDITH GAP   N/A       26  25  96 SE11       N/A   WCI  16
* LOMA         N/A       20  19  96 S1         N/A
$$

MTZ017>020-022>027-061-062-291700-
NORTHEAST MONTANA
CITY           SKY/WX    TMP DP  RH WIND       PRES   REMARKS
GLASGOW        FOG       25  21  85 SE8       30.45R VSB M1/4 WCI  16
GLENDIVE       CLOUDY    27  23  85 SW7       30.48S WCI  19
JORDAN         SUNNY     25  21  85 CALM      30.43S
SIDNEY         PTSUNNY   27  21  78 CALM      30.51S
WOLF POINT     FOG       21  21 100 SW3       30.48S VSB M1/4
* BEAVER HILL  N/A       25  22  88 SW10       N/A   WCI  15
* CIRCLE       N/A       25  24  96 N/A        N/A
* LINDSAY DVD  N/A       26  25  96 W13        N/A   WCI  15
* NAVAJO       N/A       20  17  88 N1         N/A
* PLENTYWOOD A SUNNY     18  16  92 N5        30.46S WCI  11
* POPLAR APT   PTCLDY    25  21  85 N/A       30.48S
* SACO         N/A       21  20  96 E4         N/A
* SCOBEY APT   PTCLDY    19  16  88 N/A        N/A
$$

MTZ028>042-056>058-291700-
SOUTHCENTRAL AND SOUTHEAST MONTANA
CITY           SKY/WX    TMP DP  RH WIND       PRES   REMARKS
BAKER          FOG       25  25 100 W13       30.46S VSB 3/4  WCI  13
BILLINGS       SUNNY     28  25  89 SW9       30.41R WCI  19
LIVINGSTON     PTCLDY    28  19  69 NW20G30   30.38R WCI  15
MILES CITY     SUNNY     23  21  92 SE9       30.47S WCI  13
* BIG TIMBER A PTCLDY    28  25  89 W3        30.39S
* FORSYTH APT  SUNNY     27  25  92 CALM      30.45S
* LAUREL APT   SUNNY     28  19  69 N/A        N/A
* ROUNDUP APT  SUNNY     25  19  78 N/A        N/A
* ALZADA       N/A       27  25  92 W4         N/A
* HYSHAM       N/A       34  28  79 N/A        N/A
* LAME DEER    N/A       31  23  72 S4         N/A
* REED POINT   N/A       23  23 100 N/A        N/A
* ROSCOE HILL  N/A       32  10  40 S7         N/A   WCI  25
$$

REGIONAL REPORTS...DAKOTAS
CITY           SKY/WX    TMP DP  RH WIND       PRES   REMARKS
WILLISTON      CLOUDY    21  18  88 NW9       30.49S WCI  11
DICKINSON      PTCLDY    28  21  75 W16       30.42R WCI  16
BEACH          CLOUDY    27  25  92 NW10      30.46S WCI  18
CROSBY         CLOUDY    19  19 100 N7        30.48R WCI  10
TIOGA          CLOUDY    23  23 100 NW8       30.48R WCI  14
WATFORD CITY   N/A       23  18  81 NW10      30.46S WCI  13
BISMARCK       CLOUDY    27  19  72 N14G24    30.47R WCI  16
GRAND FORKS    CLOUDY    12   5  73 N23       30.47R WCI  -7
FARGO          LGT SNOW  19  10  68 N26G36    30.43R WCI   1
BUFFALO SD     SUNNY     27  23  85 NW8       30.38R WCI  19
RAPID CITY     SUNNY     28  21  75 CALM      30.46R
$$

REGIONAL REPORTS...WYOMING/IDAHO/WASHINGTON
CITY           SKY/WX    TMP DP  RH WIND       PRES   REMARKS
GILLETTE       SUNNY     34  25  70 SW10      30.45S WCI  26
SHERIDAN       PTCLDY    32  25  75 CALM      30.43S
CODY           PTCLDY    36  25  64 SW14      30.40S WCI  27
YELLOWSTONE LA PTSUNNY   16  16 100 CALM      30.46R
SALMON         CLOUDY   N/A N/A N/A CALM      30.50S VSB M1/4
MULLAN PASS    PTCLDY    27  21  78 S7        30.33S WCI  19
SAND POINT     CLOUDY    32  32 100 CALM      30.46S
SPOKANE        FOG       30  30 100 NE7       30.42R VSB M1/4 WCI  23
$$

REGIONAL REPORTS...ALBERTA
CITY           SKY/WX    TMP DP  RH WIND       PRES   REMARKS
CALGARY        PTCLDY    27  21  78 SW5       30.21F WCI  21
LETHBRIDGE     SUNNY     28  23  81 S21       30.25F WCI  14
MEDICINE HAT   PTCLDY    25  23  92 VRB2      30.31F
EDMONTON       FOG       23  21  92 SE9       30.26F VSB 1 3/4 WCI  13
WATERTON GATE  N/A       37  21  52 SW24G36    N/A   WCI  26
CARDSTON       N/A       34  19  54 S5         N/A   WCI  29
MILK RIVER     N/A       27  25  92 SE7        N/A   WCI  19
$$

REGIONAL REPORTS...SASKATCHEWAN
CITY           SKY/WX    TMP DP  RH WIND       PRES   REMARKS
SWIFT CURRENT  PTSUNNY   18  16  92 SE9       30.36F WCI   7
MOOSE JAW      LGT SNOW  16  12  84 CALM      30.48S
REGINA         LGT SNOW  12  10  92 N5        30.48S VSB 1 1/2 WCI   4
VAL MARIE      N/A       19  18  96 E1         N/A
ASSINIBOIA     N/A       14  10  84 SE2        N/A
CORONACH       N/A       19  18  96 NW5        N/A   WCI  12

$$



USA.gov is the U.S. government's official web portal to all federal, state and local government web resources and services.